GFSGBSN_850_dewp_120.txt.gz
Dewpoint
10 10 10 10 10 10 9 9 9 9 9 7 4 2 1 -8 -16 -28 -31 -32 -31 -32 -34 -35 -34 -33 -31 -20 -17 -17 -10 -12 -13 -12 -11 -10 -10 -11 -11 -12 -13 -13 -14 -14 -13 -13 -13
10 10 10 9 10 10 9 9 9 9 9 9 7 5 2 -6 -14 -28 -28 -28 -30 -32 -34 -34 -34 -31 -26 -21 -10 -8 -14 -13 -11 -12 -12 -12 -11 -10 -10 -11 -11 -12 -11 -12 -12 -12 -12
10 9 10 10 10 10 10 9 9 9 9 9 8 7 7 0 -12 -27 -28 -25 -28 -32 -34 -33 -32 -26 -17 -13 -10 -14 -12 -10 -10 -9 -10 -11 -11 -11 -10 -11 -10 -11 -10 -12 -13 -13 -12
7 9 9 8 10 10 9 10 9 10 9 9 9 8 7 4 -6 -23 -26 -28 -28 -31 -34 -31 -25 -21 -14 -12 -11 -12 -10 -9 -9 -9 -9 -9 -11 -11 -10 -10 -10 -10 -10 -10 -13 -13 -13
5 8 9 9 9 9 8 9 9 9 9 9 9 9 8 3 -5 -21 -22 -25 -25 -30 -33 -28 -20 -15 -12 -14 -10 -11 -10 -9 -7 -8 -8 -10 -11 -9 -9 -9 -10 -9 -10 -11 -12 -13 -13
-1 0 4 6 7 8 5 8 9 9 9 9 9 9 9 6 -7 -18 -22 -25 -26 -28 -26 -19 -14 -9 -11 -12 -11 -9 -9 -6 -7 -7 -8 -8 -9 -9 -10 -9 -9 -9 -8 -9 -9 -12 -11
-5 -0 -0 0 4 6 4 7 7 8 7 8 8 8 8 8 0 -21 -24 -22 -9 -9 -18 -13 -13 -12 -14 -12 -10 -9 -7 -6 -6 -6 -5 -6 -6 -9 -9 -7 -7 -7 -7 -7 -8 -10 -8
-15 -15 -6 -0 0 5 7 7 8 8 6 7 7 8 8 7 -12 -17 -23 -12 -15 -20 -17 -14 -12 -13 -13 -12 -9 -9 -6 -5 -4 -4 -5 -4 -4 -8 -7 -6 -5 -5 -5 -5 -8 -9 -8
-27 -27 -22 -14 -2 0 5 7 7 7 6 5 7 6 7 7 -9 -16 -15 -20 -23 -20 -9 -8 -7 -9 -9 -9 -8 -8 -5 -4 -3 -3 -4 -3 -6 -6 -5 -4 -3 -4 -4 -5 -6 -7 -6
-18 -23 -26 -27 -20 -8 -1 1 2 4 6 7 8 7 6 6 2 -10 -14 -11 -20 -12 -9 -9 -8 -9 -8 -7 -7 -7 -4 -4 -3 -2 -2 -3 -5 -5 -3 -2 -3 -1 -8 -8 -7 -3 -1
-11 -15 -14 -12 -11 -13 -6 -3 -0 3 7 7 7 5 6 6 3 -4 -8 -18 -15 -15 -3 -12 -10 -8 -8 -7 -6 -5 -4 -3 -2 -2 -1 -3 -3 -2 -1 -3 -5 -4 -5 -5 -4 -1 -1
-3 -3 -10 -9 -4 -11 -15 -12 -5 1 6 6 6 6 6 5 -2 -5 -9 -12 -8 -7 -7 -10 -11 -9 -8 -7 -6 -5 -4 -2 -2 -1 -1 -2 -4 -2 -2 -3 -3 -4 -2 -2 -2 -1 2
-1 -1 -5 -6 -6 -2 -3 -10 -10 -2 2 5 5 5 5 5 1 -7 -8 -6 -8 -5 -13 -9 -9 -8 -9 -6 -5 -5 -3 -0 -1 -1 -3 -4 -3 -3 -2 -2 -3 -2 0 2 2 4 -2
-1 -1 -4 -5 -6 -2 1 1 -7 -1 2 4 5 5 5 5 0 -1 -3 -0 -5 -8 -14 -10 -9 -8 -8 -4 -4 -3 -3 -1 -2 -3 -3 -1 -1 -2 -3 -2 -1 -1 0 2 5 3 2
-4 -3 -3 -5 -6 -1 -0 1 1 2 3 4 3 4 3 1 1 -4 -1 -3 -6 -7 -12 -8 -8 -8 -5 -4 -3 -3 -3 -3 -3 -5 -0 1 2 -4 -4 -4 -1 -1 1 -1 4 3 5
-6 -2 -2 -3 -3 -1 1 1 1 2 3 4 1 1 -0 -2 -2 -3 -1 -3 -7 -12 -10 -9 -10 -7 -3 -5 -3 -3 -3 -4 -4 -4 -6 -1 4 -3 -2 -2 -2 -0 -1 3 6 7 6
-3 -2 -2 -2 -2 -1 0 1 1 1 2 4 2 -0 -1 -1 -1 -0 1 -3 -10 -10 -8 -9 -5 -4 -4 -0 -3 -2 -3 -4 -5 -5 -5 -3 3 -1 -2 -1 -1 -0 2 3 4 3 6
-2 -1 -2 -2 -1 -1 0 1 1 1 1 1 1 0 -2 -1 -0 -0 -1 -6 -7 -8 -6 -5 -5 -3 -1 1 -3 5 0 -4 -6 -6 -1 -1 2 2 -1 -3 -4 -3 1 5 6 5 6
-2 -2 -3 -2 -0 -1 -0 0 0 1 2 1 0 -3 -2 -1 0 0 -2 -5 -5 -4 -6 -5 -4 -3 -2 3 2 1 1 -4 -4 -6 -1 1 2 3 -1 1 -3 -1 -1 0 3 6 6
-2 -2 -1 -1 -1 -1 0 0 1 1 1 1 -0 -1 -2 -2 -0 -1 -0 -4 -3 -3 -4 -3 -3 -3 -3 -2 -3 -0 1 -4 -4 -6 -4 0 1 4 3 2 1 2 0 1 6 8 4
-2 -2 -2 -3 -3 -1 -0 0 0 1 1 1 -1 -1 -3 -0 -0 -1 -3 -4 -4 -2 -3 -4 -2 -5 -6 -2 -3 -2 -3 -4 -7 -2 -2 -1 3 3 2 3 3 1 2 2 2 3 4
-1 -2 -3 -0 4 6 6 1 0 1 1 1 -0 -1 -3 -4 -3 -0 -2 -2 -5 -5 -5 -5 -5 -5 -7 -7 -7 -5 -6 -6 -7 -3 -5 0 4 5 4 4 4 2 2 0 1 1 0
-1 -1 1 4 5 5 6 3 1 1 1 1 -1 -2 -3 -3 -2 1 -0 -5 -6 -6 -5 -7 -7 -6 -6 -8 -8 -9 -8 -8 -9 -7 -3 1 2 3 3 4 2 3 2 1 0 -1 1
1 3 4 3 3 4 5 2 1 1 1 0 -1 -3 -1 0 -0 -2 -5 -6 -6 -7 -6 -6 -6 -6 -6 -7 -5 -5 -6 -7 -6 -5 -5 1 1 2 2 4 6 3 -1 -2 -2 -2 -3
1 3 3 3 3 2 2 1 1 1 1 0 -2 -2 -1 1 -3 -3 -3 -4 -6 -5 -6 -6 -6 -5 -6 -6 -8 -2 0 1 0 -1 -1 -2 1 2 4 5 3 1 -0 -0 0 -1 -3
-0 2 3 2 1 0 0 0 0 1 1 -1 -3 -3 -2 -0 -1 -4 -4 -5 -4 -5 -4 -4 -4 -6 -3 -7 -3 -2 -2 -4 0 2 0 -1 0 2 2 4 4 0 -2 -1 -1 1 -4
-1 -1 -0 -0 -0 -0 -0 -0 -0 -0 -0 -1 -1 -2 -2 -2 -3 -4 -5 -5 -7 -7 -6 -5 -3 -3 -3 -2 -2 -2 -1 -2 0 -0 2 2 0 1 2 2 1 -2 -1 -1 2 1 -4
-1 -1 -1 -1 -1 -1 -0 -0 -0 -1 -2 -5 -4 -5 -8 -2 -2 -4 -6 -5 -6 -8 -6 -4 -4 -3 -4 -2 -5 -2 -2 -2 0 -1 -1 -2 -0 1 1 2 3 -2 0 2 -1 -3 -4
-2 -1 -1 -1 -1 -1 -1 -1 -1 -3 -4 -6 -6 -5 -5 -5 -2 -7 -8 -9 -9 -13 -6 -4 -4 -5 -5 -4 -4 -3 -1 0 -1 2 -2 0 -1 -1 -1 -0 -2 -2 -2 -2 -3 -3 -4

GFSGBSN_850_dewp_126.txt.gz
Dewpoint
9 10 10 10 9 10 9 9 9 10 9 9 9 9 8 7 2 0 -5 -15 -21 -17 -16 -16 -32 -34 -34 -5 -13 -13 -18 -21 -13 -13 -14 -14 -15 -14 -13 -15 -17 -16 -17 -17 -16 -16 -16
7 9 10 10 10 10 10 10 10 10 10 9 9 9 9 8 7 6 0 -5 -14 -15 -13 -12 -28 -34 -10 -10 -11 -8 -10 -11 -12 -12 -12 -13 -12 -13 -14 -14 -13 -15 -14 -14 -15 -15 -15
7 9 10 10 9 10 10 10 9 10 10 9 9 9 9 9 8 7 3 -0 -6 -11 -11 -9 -21 -32 -7 -10 -11 -11 -9 -11 -11 -10 -10 -11 -11 -11 -12 -12 -13 -12 -12 -13 -13 -15 -15
-1 5 8 9 10 10 10 10 10 10 10 10 9 9 9 9 9 8 7 5 3 -5 -7 -8 -15 -24 -7 -10 -11 -10 -10 -11 -11 -10 -9 -9 -10 -10 -11 -12 -12 -10 -10 -9 -14 -16 -16
-3 -3 -1 4 8 9 8 8 9 9 9 9 9 9 9 9 9 9 8 7 6 3 -1 -5 -11 -1 -5 -10 -13 -11 -11 -11 -11 -9 -8 -9 -10 -10 -10 -9 -8 -11 -9 -11 -15 -17 -14
-2 -2 -2 -1 2 6 7 8 8 8 9 9 8 9 8 9 8 8 8 7 6 2 -3 -3 -4 -7 -6 -10 -12 -11 -12 -10 -9 -8 -8 -8 -9 -8 -8 -8 -7 -9 -11 -13 -12 -13 -13
-11 -3 -2 -1 -1 3 5 6 8 8 8 8 5 8 8 8 8 7 7 6 -2 3 -2 -5 -6 -8 -10 -12 -12 -13 -13 -10 -9 -8 -7 -8 -6 -7 -9 -10 -9 -9 -11 -10 -10 -10 -10
-12 -16 -14 -8 -2 -1 -0 1 3 4 4 3 3 8 7 7 7 7 7 1 -5 -4 -4 -2 -3 -5 -10 -13 -12 -12 -11 -9 -9 -6 -8 -6 -5 -9 -10 -10 -10 -9 -7 -7 -8 -9 -10
-6 -17 -20 -19 -18 -13 -5 -1 -0 0 1 4 8 8 7 6 7 6 6 3 0 -10 -6 -1 -1 -2 -6 -11 -11 -13 -11 -9 -8 -7 -7 -6 -8 -8 -8 -8 -10 -8 -6 -6 -6 -9 -9
-2 -10 -14 -22 -27 -29 -24 -15 -5 -1 2 5 7 7 7 7 6 6 2 1 1 -2 2 1 -3 -6 -7 -11 -11 -13 -9 -9 -8 -6 -8 -8 -9 -8 -8 -7 -9 -6 -7 -7 -6 -4 -2
0 1 -16 -17 -17 -21 -23 -22 -18 -8 -1 1 4 5 7 6 5 3 -1 1 -8 1 5 -5 -7 -10 -10 -10 -9 -10 -9 -7 -7 -7 -5 -7 -6 -6 -7 -9 -8 -4 -6 -4 -4 -2 -2
1 0 1 -8 -14 -18 -19 -17 -8 -8 -12 -4 -1 0 3 6 6 5 4 -3 -2 5 6 -0 -9 -8 -9 -10 -10 -8 -7 -6 -5 -5 -6 -5 -8 -7 -7 -7 -6 -5 -4 -3 -3 -2 3
1 1 1 -0 -7 -6 -7 -8 -3 -6 -5 -10 -6 -2 3 5 5 5 3 -2 5 6 -2 -3 -5 -9 -9 -8 -10 -9 -6 -5 -5 -1 -3 -6 -6 -9 -8 -4 -5 -5 -1 1 0 3 1
-0 0 1 0 -1 -4 1 -3 -5 -3 -0 -1 -5 1 4 5 5 5 3 3 5 2 -1 -6 -8 -9 -8 -9 -8 -8 -8 -6 -6 -5 -4 -6 -3 -6 -6 -4 -5 -4 -3 0 1 3 3
-0 -0 -0 -1 0 -4 -0 -0 -3 -3 1 1 2 3 3 4 4 2 2 5 3 -1 -3 -2 -1 -4 -7 -9 -7 -7 -6 -7 -9 -5 -5 1 -4 -7 -5 -5 -6 -2 -2 -3 2 0 5
-1 -1 -1 -0 -2 0 -4 -2 -2 -2 1 1 2 2 2 3 2 0 2 3 1 -0 -0 -2 -1 -7 -5 -7 -6 -6 -6 -10 -9 -6 -7 -2 3 -4 -6 -6 -6 -4 -5 1 3 6 4
-3 -2 -2 -1 -1 -3 -1 -4 -1 -2 1 0 1 1 1 2 0 1 2 1 -0 -2 -1 -1 -0 -2 -4 0 -4 -4 -7 -8 -9 -6 -6 -4 2 -2 -5 -3 -5 -1 0 1 2 3 5
-3 -2 -3 -2 -2 -2 -3 -3 -1 -2 1 1 1 2 0 0 -0 0 2 -1 -1 -2 -1 -2 -5 -5 -2 -0 -1 3 -0 -2 -7 -7 -3 -4 0 2 -1 -5 -5 -5 -3 -2 2 2 5
-6 -5 -4 -3 -3 -2 -4 -2 -2 -1 0 1 1 -1 -0 0 1 1 -2 -2 -2 -1 -2 -4 -4 -5 -1 4 3 3 0 -5 -7 -6 -1 -1 1 3 1 -2 -3 -3 -2 -2 -1 1 3
-4 -5 -6 -3 -2 -3 -2 -1 -1 -1 -1 1 0 -0 -1 -0 0 0 -0 0 -1 -1 -3 -5 -6 -5 -0 1 -2 1 -0 -3 -5 -4 -4 -0 1 3 6 7 3 2 -0 -1 0 5 5
-4 -4 -5 -6 -5 -3 -2 -2 -2 -1 -1 1 0 0 -2 -1 -1 1 1 -0 -1 1 -2 -3 -3 -5 -1 -1 -2 -3 -2 -1 -4 -5 -5 -2 4 2 2 2 1 1 2 1 1 1 5
-5 -7 -6 -7 -4 -5 -3 -2 -3 -2 -1 -0 0 -1 -2 -4 -2 -0 1 2 -0 -1 -3 -3 -3 -4 -4 -4 -3 -3 -4 -1 -4 -5 -4 -2 4 4 4 1 2 3 4 2 1 0 1
-7 -9 -7 -4 -5 -5 -5 -4 -3 -2 -1 0 1 -1 -4 -3 -2 -0 -0 -1 -1 -3 -1 -5 -4 -3 -3 -5 -7 -6 -6 -5 -6 -5 -1 1 2 3 3 1 1 5 4 3 0 -1 -0
-8 -7 -6 -6 -7 -6 -2 -2 -2 -2 -2 0 0 -1 -2 1 -2 -0 -3 -2 -2 -3 0 -3 -5 -4 -4 -5 -5 -6 -6 -7 -7 -7 -5 0 2 3 2 4 6 3 -1 -2 -2 -3 -3
-8 -8 -10 -10 -4 -4 -4 -1 -1 -2 -2 0 0 0 -2 1 -2 -4 -3 -4 -4 -3 -1 -3 -4 -3 -3 -5 -4 -7 -7 -7 -8 -8 -8 -7 1 3 2 2 3 1 -1 -1 -1 -1 -3
-9 -10 -11 -4 -2 -3 -3 -2 -1 -1 -1 0 0 1 -1 0 -1 -7 -3 -5 -1 -1 1 -2 -2 -2 -4 -5 -6 -8 -5 -6 -6 -7 -11 -7 0 2 2 2 1 2 -2 -2 -2 3 -3
-7 -4 -2 -3 -3 -3 -2 -1 -1 -1 -0 -1 0 1 -0 -1 -2 -4 -2 -3 -3 -1 -1 -2 -2 -3 -4 -4 -3 -5 -3 -7 -4 0 3 2 3 3 3 1 1 -2 -2 -1 2 2 -3
-4 -2 -1 -0 -0 -1 -1 -0 1 -0 -0 -0 0 1 1 -1 -2 -3 -3 -4 -2 -2 0 -1 -2 -3 -2 -2 -6 -5 -2 -2 -3 -2 -0 2 1 3 2 2 3 -2 -1 2 -0 -3 -3
-2 -1 0 1 2 1 2 2 2 2 0 -0 1 0 0 -0 1 -0 -1 -2 -2 -2 -4 -3 -4 -5 -5 -4 -4 -4 -1 0 -3 2 -3 2 -1 4 1 1 -2 -1 1 -0 -2 -1 -2

GFSGBSN_850_dewp_129.txt.gz
Dewpoint
11 10 11 10 10 10 9 9 10 9 9 9 9 9 9 8 8 7 7 4 -1 -6 -7 -6 -6 -20 -31 -9 -5 -11 -15 -22 -14 -13 -13 -13 -13 -13 -12 -13 -15 -15 -16 -16 -15 -14 -15
7 7 7 8 10 10 10 10 10 10 10 10 10 9 8 8 8 8 7 6 4 1 -3 -6 -6 -10 -28 -5 -11 -11 -12 -20 -12 -12 -11 -11 -11 -11 -12 -13 -12 -13 -12 -12 -13 -14 -14
2 3 5 7 9 10 10 9 10 9 10 10 10 9 9 9 8 8 8 7 6 5 2 -4 -7 -12 -14 -10 -11 -10 -11 -12 -11 -11 -10 -10 -10 -10 -11 -11 -12 -12 -11 -12 -13 -13 -13
-4 -4 -2 6 9 10 10 9 10 10 10 10 10 9 9 9 9 9 8 8 7 6 5 2 -5 -11 -7 -6 -9 -11 -12 -10 -12 -11 -10 -9 -9 -9 -10 -11 -10 -10 -9 -8 -10 -12 -13
-4 -4 -4 -2 5 7 9 10 10 9 9 9 9 9 9 9 9 9 9 8 8 7 6 3 -3 -3 -1 -7 -9 -13 -11 -12 -11 -11 -10 -8 -9 -10 -10 -8 -7 -7 -6 -7 -9 -14 -14
-4 -3 -3 -2 -2 1 5 7 8 7 7 9 9 9 8 8 8 8 8 7 7 6 -1 -2 -2 -3 -6 -8 -11 -11 -12 -12 -11 -9 -9 -8 -8 -8 -7 -7 -5 -7 -8 -11 -11 -13 -11
1 -4 -4 -2 -2 -1 1 2 2 6 7 8 9 8 8 8 8 7 7 6 1 1 -2 -3 -4 -5 -6 -8 -11 -11 -11 -13 -10 -9 -7 -8 -5 -5 -6 -7 -7 -8 -9 -10 -10 -11 -8
-5 -6 -13 -8 -3 -1 -0 1 3 4 6 7 7 7 7 7 7 7 6 5 1 1 -4 3 2 1 0 -1 -9 -13 -11 -11 -9 -7 -7 -6 -4 -6 -7 -8 -9 -9 -7 -6 -7 -8 -8
1 -2 -8 -9 -8 -8 -3 -1 0 0 0 1 1 5 7 7 7 6 6 5 3 0 -5 0 -2 -1 -1 -1 -5 -10 -10 -10 -8 -7 -6 -4 -4 -6 -7 -7 -6 -8 -8 -6 -5 -7 -7
1 1 1 -2 -11 -14 -16 -12 -8 -2 -0 2 6 6 7 6 6 6 3 2 3 1 3 2 1 -3 -1 -6 -10 -9 -10 -11 -8 -6 -6 -6 -8 -7 -7 -6 -7 -5 -8 -5 -4 -2 -0
1 -0 1 0 -1 -7 -12 -17 -19 -13 -7 -1 4 6 6 6 5 2 0 1 0 1 5 -6 -7 -9 -7 -8 -9 -10 -10 -8 -7 -6 -6 -4 -5 -6 -5 -5 -9 -8 -4 -4 -3 -2 -1
1 1 1 1 1 1 -4 -8 -2 -10 -12 -13 -3 1 5 6 5 4 3 1 -0 4 6 -1 -8 -8 -9 -11 -10 -9 -9 -8 -7 -5 -5 -4 -6 -6 -6 -6 -6 -5 -4 -3 -2 -1 3
0 1 1 1 1 0 -1 -3 1 -1 -5 -12 -12 -6 1 4 5 4 3 -1 5 6 -0 -1 -2 -7 -7 -7 -8 -9 -4 -4 -4 -3 -2 -4 -6 -9 -8 -5 -6 -4 -2 3 3 3 3
0 0 0 0 0 1 -3 -0 -3 -3 -1 -3 -8 -6 0 4 5 4 3 3 6 1 2 -2 -3 -6 -6 -8 -7 -7 -7 -6 -5 -5 -3 -2 -0 -4 -7 -7 -3 -3 -2 3 4 5 4
-1 -1 0 -0 0 0 -1 -0 -0 -4 0 1 1 2 3 3 4 4 3 5 3 1 -2 -1 0 4 3 -6 -5 -5 -5 -5 -7 -8 -1 1 2 -3 -5 -5 -4 -3 -2 -3 2 2 3
-3 -1 -1 -0 -0 -0 -0 -2 0 -3 0 1 2 2 2 3 3 3 3 2 2 -2 -3 -1 3 2 2 -3 -5 -6 -5 -7 -5 -7 -5 1 2 -3 -5 -5 -5 -4 -5 2 4 4 6
-4 -2 -2 -1 -1 -1 -1 0 -3 -2 0 0 1 1 1 1 2 2 2 0 -2 -3 -3 -1 2 2 1 -1 -1 -4 -3 -6 -3 -4 -5 -1 1 0 -2 -2 -3 -3 -2 3 5 4 4
-1 -3 -3 -3 -2 -1 -1 -2 -3 -2 0 0 -0 1 1 2 1 1 1 -0 -2 -3 -3 -2 -2 0 -0 -1 -1 0 -0 -2 -3 -3 -2 -1 2 4 0 -3 -3 -3 -0 2 4 3 3
-2 -2 -2 -4 -2 -2 -2 -2 -2 -2 -1 1 0 -0 1 1 1 1 -1 -1 -2 -3 -2 -3 -1 -1 1 2 -0 1 0 -3 -4 -4 -0 0 2 4 3 0 0 1 -1 -1 0 1 2
-3 -3 -4 -2 -5 -5 -3 -2 -2 -2 -1 0 -1 -1 -0 0 1 -0 -2 -1 -1 -4 -3 -3 -2 -3 0 1 -0 0 2 -1 -5 -4 -3 -0 3 4 5 5 5 6 5 -1 1 1 2
-4 -4 -3 -3 -3 -5 -3 -2 -3 -2 -0 0 0 -1 -2 -1 -0 1 -0 -1 -0 -1 -2 -3 -2 -1 0 1 0 0 0 -1 -2 -4 -5 -2 3 3 3 2 1 2 5 1 2 1 3
-4 -3 -3 -3 -3 -3 -4 -3 -2 -2 -0 0 0 -0 -2 -2 -3 -1 -2 -1 0 -1 -2 -3 -1 -1 -2 -0 -1 -1 -3 0 -0 -2 -2 -3 2 3 3 0 2 3 3 1 2 1 1
-6 -2 -2 -2 -3 -5 -6 -5 -3 -2 0 1 -1 -1 -2 -3 -2 -1 -2 -1 -1 -1 -2 -4 -1 -0 -2 -2 -4 -6 -5 -5 -3 -2 -2 -1 2 4 3 2 5 4 2 1 1 1 1
-7 -2 -3 -3 -4 -5 -8 -4 -6 -2 -1 0 -0 -1 -1 -1 -2 -1 -2 -2 -2 -2 -1 -2 -2 -1 -3 -4 -5 -5 -6 -5 -3 -3 -4 0 3 3 4 1 4 2 1 1 0 -2 -2
-6 -5 -5 -5 -5 -7 -7 -6 -3 -5 -2 -1 0 -1 -1 -0 -3 -3 -2 -2 -2 -2 -2 -2 -2 -2 -4 -4 -2 -1 -3 -4 -4 -5 -5 -5 2 3 3 3 2 1 -1 -0 0 0 -3
-8 -7 -6 -6 -7 -7 -7 -6 -6 -4 -5 -3 -0 0 -1 -1 -1 -4 -3 -2 -2 -2 -2 -1 -2 -3 -4 -1 1 1 -1 -4 -5 -6 -6 -6 1 1 2 3 3 2 -1 -1 -2 3 -3
-8 -7 -8 -8 -7 -6 -5 -6 -7 -7 -5 -3 -0 -0 0 -0 -2 -3 -4 -4 -3 -3 -1 1 -1 -1 -2 0 2 -1 -3 -7 -2 -1 -4 -3 -0 2 2 3 2 -1 -1 -2 2 1 -3
-8 -7 -7 -7 -6 -6 -8 -12 -11 -8 -4 -2 -1 -0 -0 -1 -1 -2 -2 -2 -1 -3 0 -0 -1 -1 0 1 -0 -3 -2 -3 -4 -1 -2 -2 3 3 3 3 2 -1 -1 1 -1 -3 -3
-7 -7 -8 -8 -10 -12 -13 -6 -2 -2 -2 -3 -0 -0 -0 -0 -0 -1 -2 -2 -2 -0 -1 -1 -2 -3 -3 -2 -2 -4 -1 0 -1 4 1 4 1 2 1 1 -1 0 0 -1 -2 -3 -3

GFSGBSN_850_dewp_132.txt.gz
Dewpoint
10 10 10 11 11 11 10 10 9 8 9 9 10 10 9 8 8 8 7 7 6 4 2 1 0 1 0 -6 -11 -10 -12 -16 -16 -14 -12 -11 -11 -12 -11 -12 -14 -15 -14 -12 -12 -12 -13
9 10 10 10 10 10 10 10 10 9 10 9 9 10 10 9 8 8 8 7 7 6 5 4 1 1 1 -5 -8 -11 -10 -12 -14 -12 -13 -11 -10 -10 -11 -11 -12 -12 -11 -12 -12 -12 -13
8 7 7 7 6 7 8 10 10 10 9 8 9 9 10 10 9 9 8 8 7 7 6 5 4 2 1 -1 -11 -10 -10 -11 -11 -11 -11 -11 -10 -10 -10 -10 -11 -11 -11 -11 -12 -13 -13
3 -1 -1 1 3 5 8 10 10 10 10 10 9 10 10 10 9 9 9 8 7 7 7 6 5 1 1 -1 -5 -9 -10 -11 -11 -11 -10 -10 -9 -9 -10 -10 -10 -9 -9 -8 -10 -12 -13
-2 -3 -4 -5 -3 0 8 9 10 10 9 10 9 9 9 9 9 9 9 8 7 6 7 4 0 -3 -2 -5 -8 -9 -10 -11 -12 -12 -11 -9 -9 -10 -10 -8 -7 -8 -7 -7 -9 -13 -14
-2 -3 -4 -4 -4 -2 -0 6 9 9 9 9 9 9 9 9 8 8 8 8 7 5 3 -1 -1 -2 -5 -8 -9 -11 -11 -11 -13 -10 -9 -8 -8 -8 -8 -8 -6 -7 -7 -9 -11 -13 -11
3 1 0 1 -2 -1 -1 2 2 6 8 7 6 9 8 8 8 7 6 6 3 2 -1 -1 -2 -3 -1 -1 -7 -10 -11 -12 -13 -9 -7 -8 -6 -4 -6 -7 -7 -6 -7 -9 -10 -10 -9
3 2 -1 0 2 -0 0 -0 1 2 2 4 4 7 8 6 6 6 5 4 3 1 0 2 2 2 2 1 -3 -6 -12 -12 -10 -7 -8 -6 -4 -6 -6 -6 -5 -6 -8 -8 -8 -8 -7
2 2 2 -1 1 1 0 0 -0 0 2 2 5 6 7 6 7 6 5 5 4 3 -3 0 -0 -1 -2 -2 -0 -0 -9 -11 -9 -8 -7 -5 -4 -7 -6 -5 -4 -6 -8 -8 -7 -5 -5
1 1 2 1 -1 -1 -3 -4 -2 -1 -0 -0 1 1 6 6 6 5 4 2 3 2 1 1 1 -2 -1 -2 -5 -6 -5 -10 -8 -8 -7 -6 -7 -6 -6 -5 -6 -4 -8 -7 -4 -2 -1
1 1 1 1 1 -0 -4 -9 -10 -9 -3 -0 3 3 6 6 5 5 2 2 1 1 -3 -6 -6 -9 -7 -4 -9 -9 -10 -10 -8 -7 -7 -4 -6 -6 -4 -5 -7 -6 -5 -4 -3 -2 -2
-0 1 0 1 1 1 -0 -6 -0 -9 -14 -6 3 6 6 6 4 2 3 1 -0 2 4 -0 -8 -9 -10 -10 -10 -9 -8 -8 -7 -6 -5 -4 -6 -5 -5 -6 -6 -6 -4 -3 -2 -1 2
0 0 0 0 1 1 1 -3 1 -1 -9 -17 -4 3 5 5 5 4 3 -3 3 5 -1 0 -4 -7 -7 -7 -8 -9 -6 -4 -4 -3 -1 -5 -5 -7 -8 -5 -6 -5 -2 2 3 4 4
0 0 0 0 0 0 0 -1 -1 0 -4 -8 -12 -2 4 4 5 3 1 3 5 2 2 -1 -0 -1 -5 -6 -6 -6 -7 -3 -4 -5 -3 -2 0 -4 -4 -6 -5 -3 -2 2 4 3 4
-0 -0 0 0 -0 0 0 -1 -1 -4 -1 -1 -1 -2 2 3 2 3 2 4 1 1 -2 -1 0 2 3 -3 -6 -5 -5 -6 -7 -5 -1 -0 -0 -3 -6 -5 -5 -3 -1 -3 1 2 3
-2 -1 -1 -1 -0 -0 -0 -1 0 -2 -1 0 1 1 2 2 3 3 3 2 2 -1 -3 -1 2 1 3 -2 -4 -5 -5 -6 -4 -5 -5 -0 1 -3 -3 -5 -5 -5 -5 0 2 3 6
-2 -3 -3 -1 -1 -1 -1 -1 -2 -2 -1 1 1 -0 1 2 3 3 2 0 -1 -2 -3 -2 1 2 1 1 -2 -3 -4 -4 -3 -2 -3 -0 -0 -1 -3 -2 -2 -2 -2 2 3 4 6
-1 -1 -3 -2 -1 -1 -1 -1 -1 -1 -0 -1 -0 -1 1 2 1 1 1 -0 -2 -4 -3 -3 -1 0 1 -1 -1 -1 -2 -3 -3 -3 -0 -2 2 3 -0 -3 -3 -3 -0 1 5 4 3
-1 -1 -2 -3 -2 -2 -1 -1 -1 -1 0 -0 -1 -0 1 1 1 1 -1 -1 -2 -3 -3 -2 -2 -1 -1 -1 -2 -1 -0 -3 -4 -4 -0 -1 3 3 -1 1 3 4 2 0 1 1 2
-3 -2 -2 -2 -2 -4 -3 -2 -1 -1 -1 -1 -2 -0 0 1 0 -1 -1 -1 -1 -3 -3 -4 -2 -2 -0 -0 -1 -1 1 -1 -4 -3 -1 -0 2 3 3 4 4 5 4 4 3 1 1
-4 -3 -3 -2 -2 -2 -3 -3 -2 -2 -1 0 -2 -2 -2 -0 -0 -1 -1 -2 -2 -1 -3 -2 -2 -1 -0 0 -0 0 -1 -1 -3 -3 -4 -2 1 2 2 2 2 2 2 3 4 2 3
-6 -5 -4 -4 -3 -2 -3 -6 -5 -2 -1 0 -0 -0 -2 -2 -2 -1 -1 -2 -1 -1 -2 -2 -1 -2 -1 -0 -2 -1 -1 -0 -0 -1 -2 -3 -1 1 -0 1 2 2 1 1 3 1 1
-6 -9 -10 -7 -3 -2 -2 -4 -3 -2 -1 1 0 -2 -3 -2 -2 -2 -2 -2 -2 -2 -3 -3 -3 -2 -2 -1 -3 -4 -5 -4 -3 -2 -1 -2 -0 2 1 -1 2 3 2 2 1 1 -0
-8 -7 -7 -10 -7 -2 -2 -4 -4 -2 -2 0 -0 -1 -1 -1 -2 -2 -3 -3 -3 -3 -1 -2 -2 -2 -2 -2 -3 -5 -6 -6 -5 -4 -3 -1 -0 2 2 1 2 -2 1 1 1 0 -1
-8 -8 -8 -8 -7 -3 -2 -3 -3 -4 -2 -1 0 -1 -1 -1 -2 -3 -3 -2 -3 -3 -2 -2 -3 -2 -2 -4 0 1 -0 -2 -2 -3 -2 -3 1 4 3 2 0 1 0 1 2 1 -2
-8 -8 -8 -8 -4 -2 -2 -2 -4 -6 -5 -3 -1 0 -2 -2 -3 -3 -3 -2 -2 -2 -2 -2 -3 -3 -3 -1 -0 2 1 -1 -2 -4 -5 -4 -2 2 3 3 2 1 -1 -2 -1 2 -3
-7 -7 -8 -7 -4 -2 -3 -2 -3 -6 -6 -4 -2 -1 -0 -0 -2 -3 -3 -3 -3 -2 -2 0 -1 -2 -3 1 1 1 0 -4 -3 -3 -2 -2 0 1 2 2 1 -1 -1 -2 2 -0 -3
-7 -7 -8 -7 -6 -4 -4 -4 -4 -6 -7 -4 -3 -2 -1 -0 -1 -3 -4 -2 -2 -3 -1 -1 -0 -0 1 2 2 0 -1 -3 -4 -4 -3 -2 -1 0 1 2 1 -1 -2 0 -2 -3 -3
-7 -7 -7 -8 -7 -6 -5 -5 -5 -7 -10 -5 -3 -2 -2 -1 -0 -2 -2 -3 -3 -3 -1 -1 -1 -0 0 -0 -0 -3 -2 -1 -4 -1 1 1 -0 2 1 0 -1 -0 -0 -1 -3 -3 -3